カタログに戻る

STARLINK-37151

運用中通信VLEO
NORAD 68290·PAYLOAD·🇺🇸 United States

打ち上げ Mar 19, 2026 から Vandenberg Space Force Base

Loading…

次のパス (今後24時間)

TLE

最新Source: CelesTrak SupGP

元期: Sep 14, 2026, 23:30 UTC

1 68290C 26055AE  26257.97965278 -.00077049  00000+0 -22759-2 0  2570
2 68290  53.1579 155.6814 0001318  88.1062 264.2816 15.34436601    18

AllMySatでSTARLINK-37151をリアルタイム追跡

Download on the App Store